Regional Weather Roundup
Issued by NWS Little Rock, AR

Home | Current Version | Previous Version | Graphics & Text | Print | Product List | Glossary On
Versions: 1 2 3 4 5 6 7 8 9 10 11 12 13 14 15 16 17 18 19 20 21 22 23 24 25 26 27 28 29 30 31 32
000
ASUS44 KLZK 201105
RWRLZK

WEATHER ROUNDUP FOR ARKANSAS
NATIONAL WEATHER SERVICE LITTLE ROCK AR
500 AM CST SAT JAN 20 2018

NOTE: "FAIR" INDICATES FEW OR NO CLOUDS BELOW 12,000 FEET WITH NO
SIGNIFICANT WEATHER AND/OR OBSTRUCTIONS TO VISIBILITY.

ARZ001-003-010-029-201200-
NORTHWEST ARKANSAS

CITY           SKY/WX    TMP DP  RH WIND       PRES   REMARKS
FAYETTEVILLE   CLOUDY    49  42  77 S14       29.98F
FORT SMITH     CLOUDY    44  33  65 NE8       30.02F
HARRISON       CLOUDY    47  40  76 S12       29.99S
BENTONVILLE    CLOUDY    48  41  76 S12G18    29.97F
ROGERS         CLOUDY    49  43  80 S18G24    29.96F
SILOAM SPGS    CLOUDY    49  41  74 S14       29.97F
HIGHFILL       CLOUDY    49  42  77 S14       29.96F
$$

ARZ004-005-016-201200-
NORTH CENTRAL ARKANSAS

CITY           SKY/WX    TMP DP  RH WIND       PRES   REMARKS
BATESVILLE     CLOUDY    40  24  53 VRB3      30.10S
FLIPPIN        CLOUDY    31  28  89 CALM      30.02F
MTN HOME       PTCLDY    39  32  76 S8        30.01S
$$

ARZ040-041-201200-
WEST CENTRAL ARKANSAS

CITY           SKY/WX    TMP DP  RH WIND       PRES   REMARKS
MENA           CLOUDY    50  50 100 SW5       30.03F
MOUNT IDA      CLOUDY    49  40  71 VRB5      30.04F
$$

ARZ009-017-025-026-028-201200-
NORTHEAST ARKANSAS

CITY           SKY/WX    TMP DP  RH WIND       PRES   REMARKS
JONESBORO      CLOUDY    41  27  57 S14       30.12F
NEWPORT        MOCLDY    38  29  70 S10       30.12F
WALNUT RIDGE   FAIR      35  27  72 S10       30.10S WCI  27
BLYTHEVILLE    CLOUDY    39  29  67 S10       30.14S
$$

ARZ022-023-033-042-044-201200-
CENTRAL ARKANSAS

CITY           SKY/WX    TMP DP  RH WIND       PRES   REMARKS
LITTLE ROCK    CLOUDY    43  27  53 S6        30.12F
N LITTLE ROCK    N/A     43  27  54 S5        30.07F
JACKSONVILLE   CLOUDY    43  26  51 S3        30.11S
SEARCY         CLOUDY    41  30  65 CALM      30.13F
HOT SPRINGS    CLOUDY    46  25  43 E3        30.10F
RUSSELLVILLE   CLOUDY    42  30  62 CALM      30.07F
CLINTON        MOCLDY    30  27  86 CALM      30.09S
$$

ARZ036-201200-
EAST ARKANSAS

CITY           SKY/WX    TMP DP  RH WIND       PRES   REMARKS
WEST MEMPHIS   CLOUDY    39  29  67 S9        30.16S
$$

ARZ050-053-066-070-073-201200-
SOUTHWEST ARKANSAS

CITY           SKY/WX    TMP DP  RH WIND       PRES   REMARKS
ARKADELPHIA    CLOUDY    42  34  73 CALM      30.12F
CAMDEN         CLOUDY    46  25  42 S5        30.13S
TEXARKANA      CLOUDY    48  38  68 S8        30.09S
EL DORADO      CLOUDY    47  30  51 S5        30.13S
DE QUEEN       LGT RAIN  46  35  65 E5        30.06F
$$

ARZ056-057-069-201200-
SOUTHEAST ARKANSAS

CITY           SKY/WX    TMP DP  RH WIND       PRES   REMARKS
PINE BLUFF     CLOUDY    41  30  65 SE5       30.14F
MONTICELLO     CLOUDY    47  24  40 S6        30.15S

$$






USA.gov is the U.S. government's official web portal to all federal, state and local government web resources and services.